Regional Weather Roundup
Issued by NWS Charleston, SC

Home | Current Version | Previous Version | Text Only | Print | Product List | Glossary On
Versions: 1 2 3 4 5 6 7 8 9 10 11 12 13 14 15 16 17 18 19 20 21 22 23 24 25 26 27 28 29 30 31 32 33 34 35 36 37 38 39 40 41 42 43 44 45 46 47 48 49 50
000
ASUS42 KCHS 062327
RWRCHS

REGIONAL WEATHER ROUNDUP
NATIONAL WEATHER SERVICE CHARLESTON SC
700 PM EDT WED MAY 06 2015

NOTE: "FAIR" INDICATES FEW OR NO CLOUDS BELOW 12,000 FEET WITH NO
SIGNIFICANT WEATHER AND/OR OBSTRUCTIONS TO VISIBILITY.

NOT ALL STATIONS ARE QUALITY CONTROLLED BY THE NATIONAL
WEATHER SERVICE. USE DATA WITH CAUTION...ESPECIALLY
DEWPOINT OBSERVATIONS.

SCZ027-030-031-034>040-042>050-070000-
...SOUTHEAST SOUTH CAROLINA...

CITY           SKY/WX    TMP DP  RH WIND       PRES   REMARKS
N CHARLESTON   PTSUNNY   75  55  49 NE10      30.09S
WATERFRONT PRK NOT AVBL
MOUNT PLEASANT FAIR      73  59  60 MISG      30.09S
PINOPOLIS      NOT AVBL
MONCKS CORNER  FAIR      75  57  53 E8        30.08F
SUMMERVILLE    FAIR      75  59  57 E6        30.09S
BEAUFORT MCAS  PTSUNNY   74  62  66 E7        30.08S
BEAUFORT ARPT  FAIR      72  63  73 E9        30.07F
HILTON HEAD IS PTSUNNY   73  63  68 NE12      30.09F
WALTERBORO     PTCLDY    73  55  53 E6        30.08F
ALLENDALE      FAIR      73  57  56 CALM      30.08F

...SOUTHERN MIDLANDS AND PEE DEE...

CITY           SKY/WX    TMP DP  RH WIND       PRES   REMARKS
GEORGETOWN     NOT AVBL
KINGSTREE      NOT AVBL
ORANGEBURG     MOSUNNY   77  50  38 E3        30.09F
BARNWELL       FAIR      79  54  41 CALM      30.10S
AIKEN          FAIR      77  46  33 CALM      30.13S
MANNING        FAIR      77  52  41 E3        30.09S
COLUMBIA       PTSUNNY   78  46  32 E6        30.09F
SUMTER         MOSUNNY   81  46  28 E7        30.08F
FLORENCE       PTSUNNY   78  47  33 E9        30.10S
MYRTLE BEACH   PTSUNNY   73  57  56 E14       30.12F
N MYRTLE BEACH CLOUDY    72  56  57 NE9       30.11F

$$

GAZ063-065-086>088-099>101-113>116-118-119-134>141-150-070000-
...SOUTHEAST GEORGIA...

CITY           SKY/WX    TMP DP  RH WIND       PRES   REMARKS
SAVANNAH ARPT  PTSUNNY   74  58  57 SE10      30.08F
HUNTER AAF     MOSUNNY   73  62  68 E13       30.06F
FORT STEWART   CLOUDY    74  62  66 E2        30.06F
STATESBORO       N/A     76  58  53 NE3       30.08F
SYLVANIA       CLOUDY    75  60  59 CALM      30.10S
CLAXTON        FAIR      77  61  57 NE3       30.08S

...CSRA...CENTRAL AND FAR SOUTHEAST GEORGIA...

CITY           SKY/WX    TMP DP  RH WIND       PRES   REMARKS
THOMSON        MOSUNNY   80  59  47 NE3       30.14F
AUGUSTA-BUSH   PTSUNNY   77  55  46 SE5       30.09F
AUGUSTA-DANIEL PTSUNNY   81  50  33 E7        30.10F
SWAINSBORO     FAIR      81  34  18 E7        30.09F
VIDALIA        MOSUNNY   79  55  44 E12       30.08F
EASTMAN        FAIR      80  55  40 N3        30.10S
HAZLEHURST     FAIR      79  61  53 E3        30.07S
ALMA           SUNNY     77  59  53 E6        30.08S
WAYCROSS       MOSUNNY   78  66  67 E6        30.07S
JESUP          FAIR      77  68  73 SE5       30.08S
BAXLEY         PTSUNNY   77  61  57 E6        30.07F
BRUNSWICK      PTSUNNY   73  61  64 NE12      30.08F
SAINT SIMONS   PTSUNNY   73  63  70 NE13G21   30.07F

$$

SCZ027-028-034-036>038-045-046-048>050-GAZ119-141-070000-
...LAKE AND SUPPLEMENTAL COASTAL OBSERVATIONS...

STATION/POSITION TIME  TEMP    WIND        PRES    WAVE   SWELL
                       AIR SEA DIR/SP/G            HT/PER HT/PER/DIR
                 (UTC) (F)     (DEG/KT/KT) (MB)    (FT/S) (FT/S/D)
UPR LAKE MARION  NOT AVBL
WINYAH BAY       2245   71      60/ 14     1018.0F
LAKE MURRAY      2200   79      70/  5/  8 1018.6F
ACE BASIN NERRS  NOT AVBL
FORT PULASKI     2300   71 71   60/ 15/ 17 1019.2F
SAPELO ISLAND    2300   73      50/  8     1018.0F

$$

ANZ835-935-AMZ111-154-330-350-352-354-370-450-454-472-070000-
...C-MAN AND BUOY OBSERVATIONS...

STATION/POSITION TIME  TEMP    WIND        PRES    WAVE   SWELL
                       AIR SEA DIR/SP/G            HT/PER HT/PER/DIR
                 (UTC) (F)     (DEG/KT/KT) (MB)    (FT/S) (FT/S/D)
BUOY 41004       2250   72 73   30/ 21/ 25 1017.2F   9/ 9   5/ 9
BUOY 41008       2250   71 70   50/ 12/ 14 1018.4F   6/ 8   5/110/ 8
FOLLY BEACH CMAN 2300   71      60/ 18/ 20 1018.9F
CAPERS NEARSHORE 2208   71      60/ 17/ 23 1019.3F
FRIPP NEARSHORE  2200   71      60/ 19/ 23 1018.2F


STATION/POSITION TIME  TEMP    WIND        PRES    WAVE   SWELL
                       AIR SEA DIR/SP/G            HT/PER HT/PER/DIR
                 (UTC) (F)     (DEG/KT/KT) (MB)    (FT/S) (FT/S/D)
5E ST. MARYS GA  2221      71                N/A     6/ 7
FRYING PAN BUOY  2250   72 71   60/ 17/ 21 1019.0F   7/ 8   3/160/11
BUOY 41025       2250   71 74   90/ 14/ 16 1020.6F   4/ 7   2/130/ 7
CAPE LOOKOUT NC  2300   69      60/  9/  9 1019.8F
BUOY 41002       2250   70 70  120/ 16/ 17 1016.1F   8/ 8   5/130/ 8
BUOY 41010       2220   73 78  350/ 19/ 21 1014.2F
ST AUGUSTINE FL  2300   71 73   10/ 19/ 21 1018.1F


$$


USA.gov is the U.S. government's official web portal to all federal, state and local government web resources and services.